GW6118 Weather Reports


time (UTC)temp
F
wind
direction
speed
knots
gust
knots
rain 1hr
in
rain 24hr
in
rain mn
in
humidity
%
barometer
mb
20260506001526 74 233 1.7 6.1 0.00 0.01 0.01 42 1008.1
20260506000013 75 237 3.5 12.2 0.00 0.01 0.01 41 1008.1
20260505233021 76 254 5.2 12.2 0.00 0.01 0.01 40 1007.9
20260505231525 76 237 3.5 11.3 0.00 0.01 0.01 40 1007.9
20260505224512 78 234 6.1 15.6 0.00 0.01 0.01 36 1007.6
20260505223018 79 216 7.8 14.8 0.00 0.01 0.01 1007.6
20260505220011 79 254 8.7 17.4 0.00 0.01 0.01 36 1007.5
20260505213021 80 201 4.3 11.3 0.00 0.01 0.01 37 1007.5
20260505210025 80 210 6.1 13.9 0.00 0.01 0.01 36 1007.3
20260505204510 81 200 7.8 15.6 0.00 0.01 0.01 35 1007.3
20260505201519 80 236 7.0 19.1 0.00 0.01 0.01 35 1007.4
20260505193012 80 247 7.8 16.5 0.00 0.01 0.01 35 1007.6
20260505191516 81 221 6.1 15.6 0.00 0.01 0.01 34 1007.5
20260505190029 80 219 7.8 17.4 0.00 0.01 0.01 35 1007.8
20260505184526 81 257 5.2 18.2 0.00 0.01 0.01 34 1007.9
20260505183009 82 238 5.2 13.9 0.00 0.01 0.01 36 1008.2
20260505180022 80 214 7.0 15.6 0.00 0.01 0.01 34 1008.4
20260505174525 80 203 7.8 18.2 0.00 0.01 0.01 35 1008.8
20260505173036 80 229 6.1 13.0 0.00 0.01 0.01 40 1008.9
20260505170019 79 248 6.1 12.2 0.00 0.01 0.01 40 1009.1
20260505164523 78 281 6.1 13.9 0.00 0.01 0.01 42 1009.2
20260505163024 78 260 6.1 13.9 0.00 0.01 0.01 42 1009.6
20260505161526 77 246 5.2 13.0 0.00 0.01 0.01 42 1009.6
20260505153025 76 243 7.0 11.3 0.00 0.01 0.01 45 1010.0
20260505151533 75 194 4.3 12.2 0.00 0.01 0.01 44 1010.0
20260505124518 63 246 2.6 9.6 0.00 0.01 0.01 66 1010.6
20260505101525 52 207 0.0 1.7 0.00 0.01 0.01 89 1010.0
20260505100026 53 102 0.0 0.0 0.01 0.01 0.01 88 1009.8
20260505094528 54 102 0.0 0.0 0.01 0.01 0.01 86 1009.9
20260505093018 55 102 0.0 0.9 0.01 0.01 0.01 84 1010.0
20260505091527 57 158 0.0 1.7 0.01 0.01 0.01 78 1009.7
20260505090036 58 188 0.0 1.7 0.00 0.00 0.00 69 1010.0
20260505084525 58 194 0.9 2.6 0.00 0.00 0.00 67 1009.5
20260505083029 60 325 0.9 3.5 0.00 0.00 0.00 65 1009.7
20260505081518 60 219 2.6 5.2 0.00 0.00 0.00 64 1009.2
20260505080021 60 264 2.6 6.1 0.00 0.00 0.00 63 1009.2
20260505074524 60 227 3.5 7.8 0.00 0.00 0.00 63 1009.3
20260505073043 60 202 2.6 7.0 0.00 0.00 0.00 63 1009.4
20260505071519 60 223 1.7 4.3 0.00 0.00 0.00 62 1009.4
20260505070021 60 218 2.6 6.1 0.00 0.00 0.00 62 1009.4
20260505064536 59 201 2.6 5.2 0.00 0.00 0.00 61 1009.3
20260505063026 59 235 2.6 6.1 0.00 0.00 0.00 61 1009.3
20260505061540 59 222 2.6 6.1 0.00 0.00 0.00 60 1009.4
20260505060016 59 187 2.6 7.0 0.00 0.00 0.00 59 1009.3
20260505054514 60 236 3.5 7.8 0.00 0.00 0.00 58 1009.3
20260505053015 60 257 3.5 7.0 0.00 0.00 0.00 56 1009.3
20260505051514 60 230 3.5 7.0 0.00 0.00 0.00 55 1009.4
20260505034517 61 216 2.6 8.7 0.00 0.00 0.00 51 1009.1
20260505033020 61 265 2.6 5.2 0.00 0.00 0.00 51 1009.2
20260505031537 61 169 1.7 4.3 0.00 0.00 0.00 50 1009.3
20260505024530 62 251 1.7 6.1 0.00 0.00 0.00 49 1009.3
20260505023020 62 252 1.7 3.5 0.00 0.00 0.00 49 1009.5
20260505021520 62 228 1.7 4.3 0.00 0.00 0.00 49 1009.6
20260505020028 63 188 0.9 5.2 0.00 0.00 0.00 48 1009.7
20260505014523 63 159 0.9 3.5 0.00 0.00 0.00 48 1009.6
20260505013019 63 229 0.9 3.5 0.00 0.00 0.00 47 1009.6
20260505011530 63 227 1.7 7.8 0.00 0.00 0.00 47 1009.6
20260505010019 63 221 0.9 3.5 0.00 0.00 0.00 47 1009.5
20260505004539 64 250 1.7 4.3 0.00 0.00 0.00 46 1009.4
20260505003019 64 218 0.9 2.6 0.00 0.00 0.00 45 1009.2